TimeHST,TemperatureF,Dew PointF,Humidity,Sea Level PressureIn,VisibilityMPH,Wind Direction,Wind SpeedMPH,Gust SpeedMPH,PrecipitationIn,Events,Conditions,WindDirDegrees,DateUTC
12:54 AM,73.0,63.0,71,30.00,10.0,ENE,6.9,-,N/A,,Clear,70,2012-12-09 10:54:00
1:54 AM,73.0,63.0,71,29.99,10.0,NE,10.4,-,N/A,,Clear,50,2012-12-09 11:54:00
2:54 AM,73.0,64.0,73,29.97,10.0,NE,11.5,-,N/A,,Clear,40,2012-12-09 12:54:00
3:54 AM,72.0,64.0,76,29.96,10.0,NNE,12.7,18.4,N/A,,Clear,30,2012-12-09 13:54:00
4:54 AM,73.0,64.9,76,29.96,10.0,NE,10.4,18.4,N/A,,Clear,40,2012-12-09 14:54:00
5:54 AM,71.1,64.9,81,29.97,10.0,NE,8.1,-,N/A,,Partly Cloudy,50,2012-12-09 15:54:00
6:54 AM,71.1,64.0,78,29.99,10.0,NNE,5.8,-,N/A,,Partly Cloudy,30,2012-12-09 16:54:00
7:54 AM,73.9,63.0,68,29.99,10.0,NE,5.8,-,N/A,,Partly Cloudy,50,2012-12-09 17:54:00
8:54 AM,77.0,62.1,60,29.99,10.0,SE,4.6,-,N/A,,Partly Cloudy,130,2012-12-09 18:54:00
9:54 AM,79.0,64.9,62,29.98,10.0,NNE,12.7,-,N/A,,Partly Cloudy,30,2012-12-09 19:54:00
10:54 AM,79.0,62.1,56,29.96,10.0,NE,13.8,24.2,N/A,,Partly Cloudy,50,2012-12-09 20:54:00
11:54 AM,79.0,64.0,60,29.94,10.0,NNE,15.0,27.6,N/A,,Scattered Clouds,30,2012-12-09 21:54:00
12:54 PM,79.0,64.9,62,29.91,10.0,NE,15.0,29.9,N/A,,Scattered Clouds,50,2012-12-09 22:54:00
1:54 PM,80.1,64.0,58,29.89,10.0,NE,19.6,28.8,N/A,,Partly Cloudy,50,2012-12-09 23:54:00
2:54 PM,79.0,64.9,62,29.89,10.0,NE,17.3,29.9,N/A,,Partly Cloudy,40,2012-12-10 00:54:00
3:54 PM,78.1,64.0,62,29.89,10.0,NNE,12.7,23.0,N/A,,Scattered Clouds,30,2012-12-10 01:54:00
4:54 PM,78.1,63.0,60,29.91,10.0,NE,11.5,23.0,N/A,,Clear,40,2012-12-10 02:54:00
5:54 PM,75.0,63.0,66,29.94,10.0,NNE,11.5,20.7,N/A,,Partly Cloudy,30,2012-12-10 03:54:00
6:54 PM,75.0,63.0,66,29.96,10.0,NE,8.1,-,N/A,,Clear,50,2012-12-10 04:54:00
7:54 PM,75.0,64.0,69,29.98,10.0,NNE,6.9,-,N/A,,Clear,20,2012-12-10 05:54:00
8:54 PM,73.0,62.1,68,29.99,10.0,ENE,10.4,-,N/A,,Clear,70,2012-12-10 06:54:00
9:54 PM,73.9,62.1,66,30.01,10.0,NNE,4.6,-,N/A,,Clear,30,2012-12-10 07:54:00
10:54 PM,73.9,63.0,68,30.01,10.0,NE,10.4,-,N/A,,Clear,40,2012-12-10 08:54:00
11:54 PM,71.1,62.1,73,30.01,10.0,West,5.8,-,N/A,,Clear,280,2012-12-10 09:54:00